N1LTP Weather Reports


Display with metric or nautical units.
time (UTC)temp
F
wind
direction
speed
MPH
gust
MPH
rain 1hr
in
rain 24hr
in
rain mn
in
humidity
%
barometer
mb
20260510021554 51 227 0.0 0.0 0.06 0.70 0.70 96 1012.4
20260510020054 51 228 0.0 0.0 0.06 0.70 0.70 96 1012.5
20260510014605 52 228 0.0 0.0 0.06 0.70 0.70 95 1012.7
20260510013053 52 228 0.0 0.0 0.05 0.64 0.64 95 1012.6
20260510011559 52 228 0.0 0.0 0.05 0.64 0.64 95 1012.7
20260510010101 52 228 0.0 2.0 0.06 0.64 0.64 95 1012.8
20260510004556 53 236 0.0 1.0 0.03 0.59 0.59 95 1012.8
20260510003059 53 236 0.0 3.0 0.03 0.59 0.59 95 1012.7
20260510001551 53 122 0.0 2.0 0.03 0.59 0.59 95 1012.7
20260510000054 54 124 0.0 2.0 0.02 0.57 0.57 95 1012.7
20260509234605 54 143 0.0 2.0 0.00 0.56 0.56 95 1012.6
20260509233049 54 143 0.0 0.0 0.00 0.56 0.56 95 1012.6
20260509231549 54 144 0.0 1.0 0.00 0.56 0.56 95 1012.6
20260509230048 54 144 0.0 1.0 0.00 0.56 0.56 95 1012.5
20260509224547 54 200 0.0 1.0 0.00 0.56 0.56 94 1012.4
20260509223056 54 208 0.0 4.0 0.00 0.56 0.56 94 1012.3
20260509221550 55 241 0.0 2.0 0.00 0.56 0.56 94 1012.4
20260509220057 55 119 0.0 1.0 0.00 0.56 0.56 93 1012.0
20260509214546 55 132 0.0 3.0 0.00 0.56 0.56 93 1011.9
20260509213045 55 126 0.0 2.0 0.00 0.56 0.56 92 1012.0
20260509211545 56 187 0.0 5.0 0.00 0.56 0.56 90 1011.9
20260509210043 57 158 1.0 3.0 0.00 0.56 0.56 87 1011.6
20260509204556 58 65 1.0 4.0 0.00 0.57 0.56 81 1011.4
20260509203041 59 218 2.0 8.0 0.00 0.57 0.56 81 1011.4
20260509201542 59 192 2.0 6.0 0.00 0.57 0.56 80 1011.4
20260509200043 59 360 1.0 6.0 0.00 0.57 0.56 75 1011.4
20260509194543 60 161 0.0 5.0 0.00 0.64 0.56 75 1011.5
20260509193043 60 106 0.0 2.0 0.00 0.64 0.56 76 1011.4
20260509191538 60 130 2.0 5.0 0.01 0.64 0.56 76 1011.5
20260509190036 59 321 1.0 4.0 0.01 0.64 0.56 78 1011.5
20260509184537 59 126 1.0 3.0 0.01 0.78 0.56 79 1011.7
20260509183033 58 138 0.0 4.0 0.01 0.78 0.56 80 1011.9
20260509181534 57 133 1.0 4.0 0.00 0.77 0.55 84 1011.9
20260509180030 56 327 0.0 2.0 0.00 0.77 0.55 86 1012.0
20260509174530 56 327 0.0 3.0 0.00 0.78 0.55 84 1011.9
20260509173029 56 119 2.0 6.0 0.00 0.78 0.55 81 1012.9
20260509171530 57 142 1.0 4.0 0.00 0.78 0.55 77 1012.7
20260509170029 59 127 1.0 4.0 0.00 0.78 0.55 73 1012.7
20260509164526 59 131 1.0 4.0 0.00 0.78 0.55 72 1012.4
20260509163029 59 102 2.0 10.0 0.00 0.78 0.55 73 1012.6
20260509161525 59 109 2.0 8.0 0.00 0.78 0.55 71 1012.5
20260509160022 59 84 0.0 5.0 0.00 0.78 0.55 75 1012.7
20260509154519 59 129 1.0 3.0 0.00 0.79 0.55 76 1012.9
20260509153014 58 132 2.0 6.0 0.00 0.79 0.55 76 1013.0
20260509151510 56 129 0.0 4.0 0.00 0.79 0.55 82 1013.2
20260509150015 54 151 2.0 7.0 0.00 0.79 0.55 86 1013.3
20260509144509 53 115 0.0 3.0 0.00 0.99 0.55 90 1013.0
20260509143059 52 140 0.0 4.0 0.00 0.99 0.55 93 1013.4
20260509141556 51 28 0.0 5.0 0.00 0.99 0.55 95 1013.6
20260509140104 50 74 0.0 2.0 0.00 0.99 0.55 96 1014.0
20260509134551 48 32 0.0 1.0 0.00 1.02 0.55 96 1014.0
20260509133044 47 32 0.0 2.0 0.00 1.02 0.55 96 1014.3
20260509131552 46 28 0.0 1.0 0.00 1.02 0.55 96 1014.4
20260509130036 45 341 0.0 1.0 0.00 1.02 0.55 96 1014.5
20260509124536 44 341 0.0 0.0 0.00 1.02 0.55 95 1014.6
20260509123028 43 341 0.0 0.0 0.00 1.02 0.55 95 1014.5
20260509121533 42 341 0.0 0.0 0.00 1.02 0.55 94 1014.3
20260509120023 42 341 0.0 2.0 0.18 1.02 0.55 94 1014.5
20260509114520 41 341 0.0 0.0 0.28 1.02 0.55 93 1014.5
20260509113019 41 340 0.0 1.0 0.28 1.02 0.55 93 1014.9
20260509111519 41 340 0.0 0.0 0.28 1.02 0.55 93 1015.1
20260509110016 40 340 0.0 1.0 0.11 0.84 0.37 92 1015.3
20260509104514 40 340 0.0 0.0 0.00 0.73 0.26 91 1015.0
20260509103012 39 340 0.0 1.0 0.00 0.73 0.26 91 1014.8
20260509101510 38 340 0.0 0.0 0.00 0.73 0.26 91 1014.5
20260509100008 38 340 0.0 0.0 0.00 0.73 0.26 91 1014.1
20260509094503 37 340 0.0 0.0 0.00 0.73 0.26 92 1013.7
20260509093003 37 340 0.0 0.0 0.00 0.73 0.26 92 1013.6
20260509091503 36 340 0.0 0.0 0.00 0.73 0.26 92 1013.4
20260509090001 36 340 0.0 1.0 0.00 0.73 0.26 91 1013.7
20260509084604 35 340 0.0 0.0 0.00 0.73 0.26 90 1013.4
20260509083102 36 340 0.0 0.0 0.00 0.73 0.26 90 1013.4
20260509081600 36 340 0.0 0.0 0.05 0.73 0.26 90 1013.7
20260509074556 36 340 0.0 0.0 0.25 0.73 0.26 89 1013.8
20260509073056 36 340 0.0 0.0 0.20 0.68 0.21 90 1013.9
20260509071555 36 340 0.0 0.0 0.20 0.68 0.21 90 1013.7
20260509070053 37 340 0.0 0.0 0.13 0.61 0.14 89 1013.9
20260509064550 37 340 0.0 0.0 0.01 0.48 0.01 89 1013.9
20260509063056 37 340 0.0 0.0 0.01 0.48 0.01 89 1013.9
20260509061548 37 340 0.0 0.0 0.01 0.48 0.01 88 1013.8
20260509060050 38 340 0.0 0.0 0.01 0.48 0.01 88 1013.6
20260509054543 38 340 0.0 0.0 0.00 0.47 0.00 88 1013.7
20260509053107 38 340 0.0 0.0 0.00 0.47 0.00 87 1013.6
20260509051540 39 340 0.0 0.0 0.00 0.47 0.00 86 1013.6
20260509050038 39 340 0.0 0.0 0.00 0.47 0.00 84 1013.5
20260509044535 40 340 0.0 0.0 0.00 0.47 0.00 83 1013.5
20260509043039 40 340 0.0 0.0 0.00 0.47 0.00 83 1013.5
20260509041540 41 340 0.0 0.0 0.00 0.47 0.00 81 1013.4
20260509040029 41 340 0.0 2.0 0.00 0.47 0.00 80 1013.2
20260509034526 42 340 0.0 0.0 0.00 0.47 0.47 80 1013.2
20260509033026 42 340 0.0 0.0 0.00 0.47 0.47 79 1013.0
20260509031526 43 340 0.0 0.0 0.00 0.47 0.47 79 1013.0
20260509030024 44 340 0.0 0.0 0.00 0.47 0.47 78 1013.1
20260509024523 45 340 0.0 0.0 0.00 0.47 0.47 76 1013.0
20260509023022 46 340 0.0 0.0 0.00 0.47 0.47 73 1012.8